• In Hungary
  • List of Countries
  • For 7 days
  • Water Temperature
  • Satellite Maps
  • Weather Map
  • News
  • Weather Widgets
  • user-avatar
    Login

    Hourly Weather Braciszow

    Today, 20 June, Wednesday

    Time Temperature Precipitation Wind Pressure Humidity
    00:00 +18°C° 0 mm 1 mps 733 mmHg 85%
    01:00 +18°C° 0 mm 1 mps 733 mmHg 86%
    02:00 +18°C° 0 mm 1 mps 733 mmHg 87%
    03:00 +16°C° 0 mm 1 mps 733 mmHg 88%
    04:00 +16°C° 0 mm 1 mps 733 mmHg 89%
    05:00 +18°C° 0 mm 1 mps 733 mmHg 85%
    06:00 +20°C° 0 mm 1 mps 733 mmHg 80%
    07:00 +21°C° 0 mm 1 mps 734 mmHg 76%
    08:00 +22°C° 0 mm 1 mps 734 mmHg 72%
    09:00 +24°C° 0 mm 1 mps 734 mmHg 67%
    10:00 +25°C° 0 mm 1 mps 733 mmHg 62%
    11:00 +26°C° 0 mm 1 mps 733 mmHg 60%
    12:00 +27°C° 0 mm 1 mps 733 mmHg 58%
    13:00 +27°C° 0 mm 1 mps 733 mmHg 56%
    14:00 +27°C° 0 mm 1 mps 733 mmHg 56%
    15:00 +27°C° 0 mm 1 mps 732 mmHg 56%
    16:00 +25°C° 0 mm 0 mps 732 mmHg 57%
    17:00 +24°C° 0 mm 0 mps 732 mmHg 61%
    18:00 +23°C° 0 mm 0 mps 731 mmHg 66%
    19:00 +22°C° 0 mm 0 mps 731 mmHg 71%
    20:00 +23°C° 0 mm 1 mps 731 mmHg 74%
    21:00 +22°C° 0 mm 1 mps 731 mmHg 76%
    22:00 +20°C° 0 mm 1 mps 731 mmHg 79%
    23:00 +20°C° 0 mm 1 mps 731 mmHg 80%

    Tomorrow, 21 June, Thursday

    Time Temperature Precipitation Wind Pressure Humidity
    00:00 +20°C° 0 mm 1 mps 730 mmHg 81%
    01:00 +19°C° 0 mm 1 mps 730 mmHg 83%
    02:00 +19°C° 0 mm 1 mps 729 mmHg 84%
    03:00 +19°C° 0 mm 1 mps 729 mmHg 85%
    04:00 +18°C° 0 mm 2 mps 729 mmHg 86%
    05:00 +19°C° 0 mm 2 mps 729 mmHg 82%
    06:00 +21°C° 0 mm 2 mps 728 mmHg 78%
    07:00 +24°C° 0 mm 2 mps 728 mmHg 75%
    08:00 +25°C° 0.4 mm 3 mps 728 mmHg 72%
    09:00 +26°C° 0.4 mm 3 mps 727 mmHg 70%
    10:00 +27°C° 0.4 mm 4 mps 727 mmHg 68%
    11:00 +27°C° 0.8 mm 4 mps 726 mmHg 67%
    12:00 +28°C° 0.8 mm 5 mps 726 mmHg 67%
    13:00 +28°C° 0.8 mm 5 mps 725 mmHg 67%
    14:00 +28°C° 0.6 mm 5 mps 724 mmHg 67%
    15:00 +28°C° 0.6 mm 5 mps 724 mmHg 68%
    16:00 +27°C° 0.6 mm 5 mps 723 mmHg 68%
    17:00 +26°C° 1.4 mm 5 mps 723 mmHg 73%
    18:00 +23°C° 1.4 mm 5 mps 723 mmHg 77%
    19:00 +22°C° 1.4 mm 5 mps 723 mmHg 82%
    20:00 +20°C° 0.8 mm 5 mps 724 mmHg 83%
    21:00 +17°C° 0.8 mm 5 mps 725 mmHg 85%
    22:00 +14°C° 0.8 mm 5 mps 725 mmHg 87%
    23:00 +13°C° 0 mm 5 mps 726 mmHg 85%

    Day after tomorrow, 22 June, Friday

    Time Temperature Precipitation Wind Pressure Humidity
    00:00 +12°C° 0 mm 4 mps 727 mmHg 83%
    01:00 +10°C° 0 mm 3 mps 727 mmHg 81%
    02:00 +10°C° 0 mm 3 mps 727 mmHg 81%
    03:00 +9°C° 0 mm 3 mps 727 mmHg 82%
    04:00 +8°C° 0 mm 3 mps 728 mmHg 82%
    05:00 +9°C° 0 mm 3 mps 728 mmHg 77%
    06:00 +10°C° 0 mm 4 mps 728 mmHg 73%
    07:00 +11°C° 0 mm 4 mps 728 mmHg 69%
    08:00 +12°C° 0 mm 5 mps 728 mmHg 64%
    09:00 +13°C° 0 mm 5 mps 728 mmHg 60%
    10:00 +14°C° 0 mm 5 mps 728 mmHg 55%
    11:00 +14°C° 0.1 mm 6 mps 728 mmHg 55%
    12:00 +14°C° 0.1 mm 6 mps 728 mmHg 56%
    13:00 +15°C° 0.1 mm 6 mps 728 mmHg 56%
    14:00 +15°C° 0.2 mm 6 mps 728 mmHg 56%
    15:00 +15°C° 0.2 mm 6 mps 728 mmHg 57%
    16:00 +15°C° 0.2 mm 5 mps 728 mmHg 58%
    17:00 +14°C° 0.2 mm 4 mps 728 mmHg 64%
    18:00 +13°C° 0.2 mm 4 mps 728 mmHg 70%
    19:00 +12°C° 0.2 mm 3 mps 728 mmHg 76%
    20:00 +11°C° 0 mm 3 mps 728 mmHg 79%
    21:00 +10°C° 0 mm 3 mps 729 mmHg 82%
    22:00 +9°C° 0 mm 3 mps 729 mmHg 86%
    23:00 +9°C° 0 mm 3 mps 729 mmHg 87%

    23 June, Saturday

    Time Temperature Precipitation Wind Pressure Humidity
    00:00 +8°C° 0 mm 3 mps 729 mmHg 88%
    01:00 +8°C° 0 mm 3 mps 729 mmHg 89%
    02:00 +8°C° 0 mm 3 mps 729 mmHg 90%
    03:00 +8°C° 0 mm 3 mps 729 mmHg 91%
    04:00 +8°C° 0 mm 3 mps 729 mmHg 92%
    05:00 +9°C° 0 mm 3 mps 729 mmHg 88%
    06:00 +10°C° 0 mm 4 mps 729 mmHg 84%
    07:00 +11°C° 0 mm 4 mps 730 mmHg 80%
    08:00 +12°C° 0.1 mm 4 mps 730 mmHg 75%
    09:00 +13°C° 0.1 mm 5 mps 730 mmHg 71%
    10:00 +14°C° 0.1 mm 5 mps 730 mmHg 67%
    11:00 +14°C° 0.1 mm 5 mps 730 mmHg 65%
    12:00 +14°C° 0.1 mm 5 mps 730 mmHg 64%
    13:00 +14°C° 0.1 mm 5 mps 730 mmHg 62%
    14:00 +14°C° 0.1 mm 5 mps 730 mmHg 62%
    15:00 +14°C° 0.1 mm 5 mps 729 mmHg 63%
    16:00 +14°C° 0.1 mm 5 mps 729 mmHg 63%
    17:00 +14°C° 0 mm 4 mps 729 mmHg 67%
    18:00 +13°C° 0 mm 3 mps 729 mmHg 70%
    19:00 +14°C° 0 mm 2 mps 729 mmHg 74%
    20:00 +12°C° 0 mm 2 mps 730 mmHg 78%
    21:00 +10°C° 0 mm 2 mps 730 mmHg 82%
    22:00 +9°C° 0 mm 2 mps 730 mmHg 86%
    23:00 +8°C° 0 mm 2 mps 730 mmHg 87%

    24 June, Sunday

    Time Temperature Precipitation Wind Pressure Humidity
    00:00 +8°C° 0 mm 2 mps 730 mmHg 89%
    01:00 +8°C° 0 mm 2 mps 730 mmHg 90%
    02:00 +8°C° 0.1 mm 2 mps 730 mmHg 91%
    03:00 +9°C° 0.1 mm 1 mps 730 mmHg 91%
    04:00 +9°C° 0.1 mm 1 mps 730 mmHg 92%
    05:00 +10°C° 0.3 mm 1 mps 730 mmHg 91%
    06:00 +10°C° 0.3 mm 2 mps 730 mmHg 90%
    07:00 +10°C° 0.3 mm 2 mps 730 mmHg 90%
    08:00 +12°C° 0.2 mm 2 mps 730 mmHg 87%
    09:00 +13°C° 0.2 mm 2 mps 730 mmHg 84%
    10:00 +13°C° 0.2 mm 2 mps 731 mmHg 81%
    11:00 +14°C° 0.2 mm 2 mps 731 mmHg 77%
    12:00 +15°C° 0.2 mm 2 mps 730 mmHg 73%
    13:00 +16°C° 0.2 mm 2 mps 730 mmHg 69%
    14:00 +16°C° 0.1 mm 3 mps 730 mmHg 68%
    15:00 +16°C° 0.1 mm 3 mps 730 mmHg 67%
    16:00 +17°C° 0.1 mm 3 mps 730 mmHg 66%
    17:00 +16°C° 0.1 mm 3 mps 730 mmHg 70%
    18:00 +15°C° 0.1 mm 2 mps 730 mmHg 74%
    19:00 +14°C° 0.1 mm 2 mps 730 mmHg 79%
    20:00 +13°C° 0 mm 2 mps 730 mmHg 82%
    21:00 +12°C° 0 mm 2 mps 731 mmHg 86%
    22:00 +9°C° 0 mm 2 mps 731 mmHg 89%
    23:00 +9°C° 0 mm 2 mps 731 mmHg 89%

    25 June, Monday

    Time Temperature Precipitation Wind Pressure Humidity
    00:00 +9°C° 0 mm 2 mps 731 mmHg 90%
    01:00 +8°C° 0 mm 2 mps 731 mmHg 90%
    02:00 +8°C° 0 mm 2 mps 731 mmHg 90%
    03:00 +8°C° 0 mm 2 mps 731 mmHg 91%
    04:00 +9°C° 0 mm 1 mps 731 mmHg 92%
    05:00 +10°C° 0 mm 2 mps 731 mmHg 87%
    06:00 +12°C° 0 mm 2 mps 731 mmHg 83%
    07:00 +14°C° 0 mm 2 mps 731 mmHg 78%
    08:00 +15°C° 0.2 mm 2 mps 731 mmHg 74%
    09:00 +17°C° 0.2 mm 2 mps 731 mmHg 70%
    10:00 +18°C° 0.2 mm 2 mps 731 mmHg 66%
    11:00 +18°C° 0.2 mm 2 mps 731 mmHg 65%
    12:00 +19°C° 0.2 mm 2 mps 730 mmHg 63%
    13:00 +19°C° 0.2 mm 2 mps 730 mmHg 62%
    14:00 +20°C° 0.2 mm 2 mps 730 mmHg 61%
    15:00 +20°C° 0.2 mm 2 mps 730 mmHg 61%
    16:00 +20°C° 0.2 mm 3 mps 730 mmHg 61%
    17:00 +19°C° 0.1 mm 2 mps 730 mmHg 67%
    18:00 +18°C° 0.1 mm 2 mps 730 mmHg 73%
    19:00 +17°C° 0.1 mm 2 mps 730 mmHg 79%
    20:00 +16°C° 0 mm 2 mps 730 mmHg 82%
    21:00 +15°C° 0 mm 1 mps 730 mmHg 86%
    22:00 +14°C° 0 mm 1 mps 730 mmHg 89%
    23:00 +14°C° 0 mm 1 mps 730 mmHg 90%
    Show more